Location: Rounton
(54.4000°N, 1.3500°W)
Time: 18:20:00
(UTC+00:00)

DELTA 1 DEB - Visible Passes

Search period start: 28 November 2022 00:00
Search period end: 08 December 2022 00:00
Orbit: 820 x 871 km, 99.0° (Epoch: 27 November)

Date Brightness Start Highest point End Pass type
(mag) Time Alt. Az. Time Alt. Az. Time Alt. Az.
28 Nov ? 04:37:48 10° NNE 04:42:52 38° E 04:47:50 10° SSE visible
28 Nov ? 06:18:24 10° N 06:23:34 45° WNW 06:28:39 10° SW visible
28 Nov ? 17:54:46 10° WSW 17:57:28 14° W 18:00:11 10° NW visible
29 Nov ? 04:24:44 10° NNE 04:29:30 31° E 04:34:13 10° SSE visible
29 Nov ? 06:05:06 10° N 06:10:24 55° WNW 06:15:37 10° SW visible
29 Nov ? 17:40:28 10° SW 17:44:01 17° W 17:47:34 10° NW visible
30 Nov ? 04:11:43 10° NE 04:16:07 25° E 04:20:28 10° SE visible
30 Nov ? 05:51:48 10° NNE 05:57:12 68° WNW 06:02:31 10° SSW visible
30 Nov ? 17:26:27 10° SW 17:30:35 21° W 17:34:43 10° NW visible
01 Dec ? 03:58:46 10° NE 04:02:42 20° E 04:06:35 10° SE visible
01 Dec ? 05:38:32 10° NNE 05:43:59 83° WNW 05:49:20 10° SSW visible
01 Dec ? 07:20:01 10° N 07:23:51 20° NW 07:27:41 10° W visible
01 Dec ? 17:12:37 10° SSW 17:17:11 26° W 17:21:46 10° NW visible
02 Dec ? 03:45:59 10° NE 03:49:15 16° E 03:52:30 10° ESE visible
02 Dec ? 05:25:18 10° NNE 05:30:44 81° ESE 05:36:07 10° SSW visible
02 Dec ? 07:06:34 10° N 07:10:48 24° NW 07:14:59 10° WSW visible
02 Dec ? 16:58:55 10° SSW 17:03:49 32° W 17:08:43 10° NNW visible
03 Dec ? 03:33:29 10° ENE 03:35:47 13° E 03:38:05 10° ESE visible
03 Dec ? 05:12:04 10° NNE 05:17:28 66° ESE 05:22:47 10° S visible
03 Dec ? 06:53:10 10° N 06:57:43 28° NW 07:02:12 10° WSW visible
03 Dec ? 16:45:18 10° SSW 16:50:28 39° W 16:55:37 10° NNW visible
04 Dec ? 04:58:53 10° NNE 05:04:11 53° E 05:09:24 10° S visible
04 Dec ? 06:39:47 10° N 06:44:36 34° WNW 06:49:21 10° WSW visible
04 Dec ? 16:31:48 10° S 16:37:09 48° W 16:42:28 10° NNW visible
05 Dec ? 04:45:43 10° NNE 04:50:51 42° E 04:55:55 10° S visible
05 Dec ? 06:26:26 10° N 06:31:27 41° WNW 06:36:25 10° SW visible
05 Dec ? 16:18:23 10° S 16:23:51 60° WSW 16:29:16 10° NNW visible
05 Dec ? 18:03:40 10° WSW 18:05:35 12° W 18:07:29 10° WNW visible
06 Dec ? 04:32:36 10° NNE 04:37:30 34° E 04:42:21 10° SSE visible
06 Dec ? 06:13:06 10° N 06:18:18 49° WNW 06:23:26 10° SW visible
06 Dec ? 17:49:03 10° WSW 17:52:06 15° W 17:55:09 10° NW visible
07 Dec ? 04:19:32 10° NE 04:24:08 28° E 04:28:40 10° SSE visible
07 Dec ? 05:59:47 10° NNE 06:05:06 60° WNW 06:10:22 10° SW visible
07 Dec ? 17:34:52 10° SW 17:38:39 19° W 17:42:25 10° NW visible
